Theta_e
311 314 313 313 315 316 319 318 315 315 315 315 316 316 315 315 315 315 313 312 312 313 313 315 316 315 316 314 313 314 316 319 321 321 321 321 321 323 326 328 328 327 326 324 323 323 323 323 322 322 320 319 319 319 319 318 318 315 311 310 310 309 309 309 308 309 309 309 308 307 307 307 307 306 306 306 307 306 306 305 304 304 303 303 303 304
311 313 315 318 320 317 319 319 317 316 316 315 316 315 314 314 315 315 314 314 313 313 314 315 316 316 315 317 316 313 314 319 320 321 321 320 320 321 323 327 328 328 326 324 323 321 321 321 322 321 320 320 319 319 319 318 318 315 311 310 310 309 309 309 308 307 307 307 307 307 306 306 306 306 306 306 306 306 306 305 305 305 304 303 303 303
312 313 318 320 317 317 318 316 317 317 316 314 314 315 315 314 313 315 315 316 313 314 316 314 315 317 317 318 317 314 315 317 318 319 321 321 320 320 321 324 326 327 326 324 323 321 320 320 320 321 320 320 319 319 319 318 318 315 312 310 309 309 309 309 308 307 307 307 307 306 306 306 307 307 307 306 306 306 306 306 306 305 304 304 303 304
312 314 317 315 314 320 321 316 316 318 316 314 314 314 316 315 315 315 317 318 315 314 315 314 315 318 320 318 317 315 313 313 313 314 317 319 320 321 320 322 323 324 325 325 323 322 320 319 319 320 320 320 319 319 319 318 318 316 313 311 310 309 309 308 308 307 308 307 306 307 307 307 307 307 307 307 307 307 306 306 306 306 305 304 304 304
311 313 312 313 317 319 320 317 317 317 315 317 318 315 316 317 316 315 317 319 316 314 314 315 314 316 318 317 316 314 312 313 312 312 313 314 316 319 320 320 321 322 323 323 323 322 321 320 319 320 320 321 320 320 319 318 318 316 313 312 311 309 309 309 308 308 308 308 307 307 308 308 308 308 308 307 307 307 307 307 307 306 305 305 304 305
311 311 309 315 318 316 317 318 318 318 315 317 320 319 318 320 319 318 318 318 316 315 314 314 314 314 316 317 315 314 314 315 314 313 313 312 313 315 317 318 319 320 321 322 322 322 322 321 320 320 320 321 321 320 319 318 318 316 314 313 312 310 309 309 308 309 309 308 308 308 308 308 308 308 308 308 308 308 308 307 307 307 306 305 305 305
311 310 311 318 321 318 317 317 319 319 314 315 319 320 319 319 320 320 318 316 314 314 314 313 313 314 316 317 315 315 317 318 316 315 314 312 311 312 314 315 316 317 319 320 321 322 322 321 319 320 320 320 320 319 319 318 318 317 315 314 313 310 309 310 309 309 309 309 308 308 309 308 308 308 308 308 308 308 308 308 307 307 306 306 305 305
313 313 314 319 323 320 316 317 319 317 314 315 318 317 316 317 321 321 318 316 314 314 315 314 314 314 315 316 316 316 318 318 316 315 314 312 312 312 312 313 313 314 315 316 318 319 320 321 320 319 320 320 320 319 319 318 318 318 315 314 313 311 309 310 310 309 309 309 309 309 309 309 309 308 309 309 309 308 308 308 308 307 307 306 306 305
315 316 314 319 320 315 315 319 319 316 315 316 315 314 315 317 320 320 316 315 314 314 315 314 314 314 315 316 316 315 315 316 315 314 313 313 312 312 312 312 312 313 313 314 315 317 319 319 320 320 320 320 320 319 318 318 318 318 315 314 313 311 309 310 310 310 310 309 309 309 309 309 309 309 309 309 309 309 308 308 308 307 307 307 306 306
313 311 311 315 315 313 317 318 315 316 316 314 311 311 312 313 315 316 314 314 314 313 314 316 315 314 314 315 315 314 314 314 314 313 312 313 313 312 312 312 312 312 312 313 313 314 317 319 319 319 319 319 319 319 318 318 318 318 316 314 314 313 310 310 310 310 310 309 309 309 309 309 309 309 309 310 309 309 309 309 308 308 307 307 306 306
309 307 310 313 312 312 315 311 309 313 313 311 311 312 311 311 313 313 312 313 313 313 314 315 315 314 313 314 314 314 313 312 312 313 313 313 313 312 311 312 312 312 312 312 312 312 314 317 319 320 319 319 319 318 319 318 318 318 317 315 315 314 312 310 310 310 310 309 309 309 309 309 310 310 310 310 310 310 310 309 309 308 308 307 307 306
310 309 310 311 311 310 311 309 307 308 309 311 314 313 312 312 312 312 312 312 313 314 314 311 311 313 314 314 313 312 311 310 310 312 312 312 312 310 310 311 312 311 312 312 312 312 312 314 317 319 319 319 318 319 319 319 318 318 317 316 316 315 314 312 311 311 310 310 309 309 309 309 310 310 310 310 310 310 310 310 309 309 308 308 307 307
314 312 309 309 310 310 312 311 308 307 309 312 314 314 313 313 312 312 312 312 312 313 312 309 310 312 313 314 313 311 311 311 310 311 311 311 310 309 309 311 312 312 312 312 312 311 311 313 315 317 319 319 319 319 319 319 318 318 318 317 316 317 316 314 312 311 311 311 310 309 309 309 309 310 310 310 311 311 311 311 310 309 309 308 308 307
313 314 312 311 310 309 311 312 311 311 311 312 313 314 313 312 311 312 311 310 311 313 311 309 311 312 313 313 311 310 311 310 310 310 309 308 308 308 307 310 313 312 312 312 312 312 312 313 315 317 318 319 319 319 319 319 319 318 318 318 317 316 316 316 314 312 311 311 311 310 309 309 309 310 310 311 311 311 311 311 311 311 310 309 308 308
311 312 313 312 310 308 309 311 312 313 311 310 311 312 313 313 312 312 311 311 312 312 310 310 312 313 314 312 309 310 311 309 309 308 307 307 306 306 307 310 314 314 313 312 312 313 313 314 316 317 317 318 319 319 319 319 319 319 318 318 317 316 316 316 315 314 312 311 312 311 310 309 309 309 310 310 311 311 311 311 311 311 311 311 310 308
309 310 311 310 307 308 309 308 308 310 311 308 308 310 312 313 313 311 310 311 311 311 311 311 311 312 312 310 309 311 310 309 309 307 307 307 306 306 307 309 313 315 315 314 313 313 313 314 316 316 317 318 318 318 318 319 318 319 318 318 318 317 316 316 316 315 314 312 311 312 311 310 310 309 309 310 311 311 312 312 312 311 311 311 311 310
309 311 312 310 308 308 308 307 306 308 311 309 308 311 310 309 313 313 308 307 309 311 311 310 311 312 311 311 311 310 309 308 308 307 307 307 306 307 307 308 311 314 315 316 315 314 314 314 314 315 317 317 318 318 318 318 319 318 319 318 318 317 317 316 316 316 315 313 313 312 312 312 311 310 310 310 310 311 311 312 312 312 312 312 312 312
309 312 312 311 311 309 306 307 308 307 308 309 310 311 309 308 312 313 310 308 309 311 311 309 311 312 311 313 312 309 309 308 307 307 307 307 307 308 308 308 310 312 314 315 316 316 315 315 315 315 316 316 317 318 318 318 319 319 319 318 318 318 318 317 316 316 315 314 313 313 313 313 312 312 311 310 310 311 311 312 312 312 312 312 313 313
308 311 312 310 310 310 308 308 310 308 307 308 309 309 309 311 313 312 311 311 310 310 310 309 309 310 311 312 311 310 309 308 307 306 307 307 308 308 308 308 309 309 310 312 314 316 317 317 317 316 316 317 317 318 318 318 318 319 319 319 318 319 318 317 316 315 315 315 314 313 313 313 314 314 313 312 311 311 311 312 312 312 312 312 313 313
308 311 312 309 308 308 309 310 312 311 309 308 309 308 309 311 312 312 312 312 312 311 310 310 309 310 311 311 311 311 310 308 308 307 307 307 307 307 307 307 308 308 309 309 311 313 315 317 317 317 317 317 317 318 318 318 318 319 319 319 319 319 318 318 317 315 314 314 314 313 313 313 314 315 315 315 314 313 313 313 313 313 313 313 313 313
310 310 311 311 310 309 311 311 310 311 311 310 311 310 310 309 309 310 310 310 310 310 309 309 310 311 311 309 310 312 310 308 308 307 307 307 307 306 306 307 307 308 308 309 309 310 311 313 315 317 318 317 318 318 318 318 318 319 319 319 319 319 319 319 318 317 315 314 314 313 312 313 314 315 317 317 317 316 315 315 315 314 314 313 313 313
310 309 311 312 311 311 311 308 306 308 309 310 312 311 310 310 309 310 311 308 309 310 308 308 310 312 311 308 309 311 310 309 308 307 307 307 306 306 306 307 307 308 308 308 308 309 309 310 312 314 315 317 318 318 318 318 318 318 318 319 319 319 319 319 319 319 317 316 315 314 314 314 315 315 317 317 318 318 318 317 316 316 316 315 314 314
310 310 310 310 310 310 308 304 303 305 305 307 309 309 310 312 312 312 312 311 310 309 308 308 310 311 310 308 309 311 310 309 308 307 308 307 306 306 306 307 307 307 307 307 307 308 308 309 310 310 311 313 314 316 317 318 318 318 319 319 319 319 319 319 320 320 319 319 318 317 316 316 315 316 317 318 318 318 319 319 318 317 317 317 317 315
310 309 309 309 309 309 306 303 302 303 305 306 307 307 308 310 312 311 311 311 311 310 310 310 311 311 310 309 309 309 308 307 306 306 307 306 306 306 306 307 307 307 307 307 307 307 307 307 308 308 308 309 310 311 313 314 316 317 318 318 319 319 319 319 319 320 320 320 320 320 319 318 317 317 317 318 318 318 319 319 320 320 319 319 319 318
308 308 309 308 308 309 307 306 305 305 306 307 307 306 305 307 309 309 309 309 310 310 310 311 311 311 311 309 309 308 307 307 307 306 305 305 306 306 307 307 307 307 307 307 307 307 307 307 307 307 307 307 308 308 309 309 311 311 313 314 316 317 319 320 320 320 320 320 320 320 320 321 320 319 319 318 318 319 319 319 320 320 321 320 320 320
307 309 310 307 307 308 307 307 307 306 306 306 306 306 305 306 308 308 308 308 308 308 309 310 310 311 310 309 308 308 307 307 307 306 305 305 305 306 307 307 307 307 308 307 307 307 307 307 307 307 307 307 307 307 307 307 307 307 308 309 310 311 312 314 316 318 319 320 320 320 320 321 321 321 321 320 320 320 320 320 320 320 321 321 321 321
308 308 309 309 308 307 307 307 306 305 306 306 306 306 306 307 307 307 307 307 307 307 308 310 310 309 310 309 308 308 308 307 307 307 306 305 306 307 307 308 307 307 307 307 307 307 307 307 307 307 307 307 307 307 307 307 307 307 307 307 307 307 307 308 309 311 313 315 317 318 319 320 321 321 321 321 321 322 322 322 322 321 321 320 320 320
308 307 308 310 308 306 306 305 303 303 305 305 305 306 307 308 307 306 307 307 308 307 307 309 311 310 309 309 309 309 310 309 308 308 307 306 306 306 307 307 307 307 307 306 306 306 306 307 306 306 306 306 306 306 306 306 306 306 306 306 306 306 306 306 307 306 307 307 309 310 313 315 318 320 321 322 322 322 322 322 322 322 321 320 320 319
308 306 306 307 306 306 305 303 302 303 304 304 305 306 306 307 307 306 307 308 308 306 306 309 312 311 308 308 310 310 310 310 307 306 306 306 306 306 307 307 306 306 306 305 305 305 305 305 305 305 305 305 305 305 305 305 305 305 305 305 305 305 306 306 306 306 306 306 306 306 306 308 309 312 315 317 319 321 322 322 322 322 321 320 318 318
305 306 306 304 305 305 304 303 303 303 304 304 305 306 306 306 307 306 307 308 307 307 307 307 311 313 309 308 310 309 306 306 305 305 306 306 306 306 307 306 305 304 304 303 302 302 302 303 303 303 303 303 303 302 302 302 302 302 303 303 303 303 304 304 305 305 306 306 306 306 306 306 306 307 307 309 311 314 316 319 320 321 321 320 319 317
304 306 305 304 304 304 304 304 303 303 304 304 304 304 304 305 306 305 305 305 305 306 305 305 308 310 307 306 307 304 302 303 304 306 307 306 306 307 306 305 303 302 301 301 301 301 300 301 300 301 301 301 301 301 301 301 301 301 301 301 301 301 301 302 302 303 303 304 304 305 305 305 306 306 306 306 305 306 307 309 312 315 318 320 320 319
303 304 304 303 303 303 303 303 304 303 303 303 303 303 303 304 305 304 304 305 305 305 306 305 306 306 305 306 305 303 302 304 306 308 307 306 306 306 305 303 302 301 301 300 300 300 300 300 300 300 300 300 300 300 300 300 300 300 300 300 300 300 300 300 300 301 301 301 302 302 303 304 304 305 305 305 305 305 304 304 306 310 315 318 319 320
303 303 302 303 302 302 302 303 303 302 302 303 303 304 304 305 305 304 305 305 306 306 306 305 305 305 305 304 304 304 305 305 307 308 307 306 307 305 303 302 301 301 301 300 300 300 300 300 300 300 300 300 300 300 300 300 300 300 300 300 300 300 300 300 300 300 300 300 301 301 301 302 302 303 303 304 304 304 304 303 304 307 311 314 316 319
303 302 302 302 301 301 301 301 301 302 303 303 302 302 303 304 304 304 305 305 304 304 304 303 303 303 302 303 304 306 306 305 305 305 304 305 306 304 301 302 302 301 301 301 300 300 300 300 300 300 300 300 300 300 299 299 299 299 299 299 299 300 300 300 300 300 300 300 300 300 301 301 301 301 302 302 303 303 303 303 303 305 310 314 316 318
302 302 301 301 301 300 299 300 301 302 302 302 302 301 301 301 302 303 303 303 303 303 303 302 302 303 304 304 305 305 305 304 303 302 302 303 305 303 302 302 302 301 301 301 301 301 301 301 301 300 300 300 300 300 300 299 299 299 299 299 299 299 299 299 300 300 300 300 300 300 300 301 301 301 301 302 302 302 303 303 303 305 309 313 316 317
301 301 300 300 299 299 299 300 301 301 301 301 302 303 302 302 302 302 303 303 302 302 302 303 303 304 305 305 304 304 304 303 302 301 302 303 305 304 302 302 302 302 302 302 301 301 301 301 301 301 300 300 300 300 299 299 299 299 299 299 299 299 299 299 299 299 299 300 300 300 300 300 301 301 301 302 302 302 303 303 303 304 308 312 315 317
301 300 300 300 299 299 298 299 300 300 301 301 302 303 303 303 303 303 302 302 301 301 302 303 303 304 305 304 303 303 304 303 302 302 301 302 303 303 302 302 302 302 302 302 302 301 301 301 301 301 301 301 300 300 299 299 299 299 299 299 299 299 299 299 299 300 300 300 300 300 300 301 302 302 302 302 302 302 302 302 303 305 308 312 315 316
300 300 300 300 299 298 298 299 300 301 301 301 302 302 302 302 303 302 302 302 301 300 301 302 301 302 303 303 302 303 304 303 303 302 301 301 302 302 302 302 302 302 302 302 301 301 301 301 301 301 301 301 300 300 299 299 299 299 299 300 300 300 300 300 299 299 300 300 300 300 301 303 303 303 303 303 303 303 303 303 304 306 310 313 314 315
299 299 299 300 299 298 299 300 300 300 301 301 302 302 301 301 301 301 302 302 301 300 300 301 301 302 302 302 302 303 303 302 302 303 302 301 302 302 302 302 302 302 301 301 301 300 300 300 301 301 301 301 301 300 300 299 299 300 300 300 300 300 300 300 300 300 301 301 301 302 302 303 304 305 304 304 304 304 305 305 306 308 311 313 314 314
299 298 298 299 299 299 299 300 299 299 300 301 302 302 301 300 300 302 304 303 300 300 300 301 302 302 301 301 301 302 302 302 302 302 302 301 300 300 300 301 301 301 301 301 300 300 300 300 300 300 300 300 300 300 300 299 300 300 300 300 301 301 301 300 300 301 302 302 302 303 303 304 305 305 305 305 306 306 306 307 307 309 311 313 314 313
298 297 297 298 299 299 299 300 299 299 300 301 301 301 300 300 301 303 303 300 298 299 300 300 300 300 300 300 301 302 301 301 301 300 300 299 299 299 299 300 300 300 300 300 300 300 300 300 299 300 300 300 300 300 300 300 300 300 301 301 301 301 301 301 301 302 303 303 303 303 304 305 305 306 306 306 307 308 308 308 309 310 312 313 313 311
298 297 297 297 298 298 298 299 299 299 300 301 300 300 300 300 301 301 299 297 297 299 300 300 299 299 298 299 300 300 300 299 299 299 299 298 298 298 298 298 299 299 300 300 300 300 300 300 300 300 301 301 301 301 300 300 301 301 301 301 302 302 302 302 303 303 303 304 304 304 305 305 306 306 306 306 307 308 308 309 310 311 312 312 310 308
298 298 297 297 297 297 297 298 299 299 300 300 299 299 299 300 299 298 297 297 297 298 298 299 299 298 298 299 299 299 299 299 299 299 298 298 298 298 298 298 298 298 299 300 300 300 300 300 301 301 301 301 301 301 301 302 302 302 302 301 302 302 303 303 303 304 304 305 305 305 305 305 306 306 306 307 307 308 309 310 310 311 310 309 308 307
298 297 297 296 296 297 297 298 299 299 299 298 297 298 299 299 298 297 297 297 297 297 298 299 299 298 298 298 298 298 298 298 298 298 298 298 298 297 297 297 297 298 298 299 300 300 300 300 300 301 301 301 301 301 302 302 302 302 302 302 302 303 303 303 304 304 305 305 305 305 305 305 305 305 306 307 308 309 310 310 309 308 307 306 306 305
297 297 297 296 296 297 297 297 298 298 298 297 297 297 298 298 297 297 296 297 297 297 297 298 298 298 297 297 297 297 297 298 298 298 297 297 297 297 297 297 297 297 298 298 299 300 300 299 300 300 300 300 301 302 302 302 302 302 302 302 303 303 303 304 304 304 304 305 304 305 305 305 305 306 307 308 309 310 309 308 306 305 304 303 302 300
296 296 296 296 296 297 297 297 297 297 297 297 296 296 296 296 297 296 296 296 297 297 297 297 297 296 296 296 297 297 297 297 297 297 297 297 297 297 297 298 298 298 298 298 298 298 299 299 299 299 299 300 301 301 302 302 302 302 303 303 303 303 304 304 304 304 304 303 304 304 304 305 306 307 308 309 309 308 306 304 303 302 300 299 298 296
296 295 295 296 296 296 296 296 296 297 297 297 296 296 296 296 296 296 296 296 296 296 296 296 296 296 296 296 296 297 297 297 297 298 298 297 298 298 298 298 298 298 298 298 298 298 299 299 299 300 299 299 300 301 302 302 302 303 302 303 303 303 304 304 303 303 303 303 304 305 305 306 307 307 307 306 305 304 302 301 300 298 297 297 296 295
295 295 295 296 296 295 296 296 297 297 296 296 296 296 296 296 296 295 296 296 296 296 296 296 296 296 296 296 296 297 297 298 298 298 298 298 298 298 298 298 298 298 298 298 299 300 300 300 300 300 300 300 301 301 302 302 303 303 302 303 303 303 303 303 303 302 303 304 305 305 305 305 305 304 303 301 300 299 298 298 297 296 295 294 293 293
295 295 295 296 295 295 295 296 296 296 296 296 296 296 296 295 295 295 296 296 296 296 296 296 296 296 296 297 297 297 297 298 298 298 298 298 298 298 298 298 298 298 299 300 300 301 301 301 301 300 301 301 301 302 302 303 303 303 302 302 302 302 302 302 303 303 303 304 304 304 303 302 300 299 298 297 297 297 296 296 295 294 293 293 293 294
295 295 295 295 295 295 295 295 296 295 295 296 296 296 296 296 295 295 296 296 296 296 296 296 297 297 297 297 297 298 298 298 298 298 298 298 298 298 298 299 299 299 300 300 301 301 301 301 301 301 301 302 302 302 303 303 302 302 302 301 301 301 301 302 302 302 302 302 301 300 299 297 297 296 297 296 296 295 295 294 293 293 294 295 295 296
295 295 295 295 294 295 295 295 296 295 295 296 296 295 296 295 295 295 296 296 296 296 296 296 297 297 298 297 297 297 298 298 298 298 298 299 299 299 299 300 300 300 301 301 301 301 301 301 301 301 301 301 302 302 302 302 302 302 300 300 299 300 300 301 301 300 299 299 298 298 297 297 298 298 298 297 295 294 294 294 294 295 296 296 296 296
Wind_Speed
1 1 1 1 2 2 2 1 2 3 3 2 2 2 1 1 1 1 1 2 2 1 1 1 2 3 6 5 1 5 8 9 9 9 10 13 16 21 26 30 32 33 32 30 28 28 27 26 25 25 23 22 20 19 18 16 14 12 11 10 8 6 5 4 3 3 3 3 3 4 5 5 4 4 4 4 2 2 2 3 3 3 2 2 1 2
1 1 1 3 3 1 1 3 4 3 3 2 2 2 2 2 1 0 1 2 2 1 0 1 2 2 4 5 1 3 6 9 11 12 12 14 17 21 26 30 33 33 32 30 29 28 28 28 28 27 26 25 24 22 20 18 16 14 12 11 9 7 5 5 4 4 4 3 3 4 5 6 5 6 5 4 4 3 4 5 6 5 5 4 3 2
0 1 3 3 2 3 4 4 4 3 3 2 2 2 2 1 2 1 0 1 2 1 0 1 3 3 3 4 3 2 5 7 10 14 16 17 18 22 26 30 32 33 32 32 32 31 30 30 31 30 29 28 26 25 22 20 18 16 14 11 10 8 6 6 6 6 6 5 6 6 7 7 6 6 5 5 5 5 6 7 7 7 6 5 4 4
1 1 1 2 5 4 4 3 4 4 2 2 2 2 1 0 2 1 1 2 2 2 1 0 3 3 1 2 3 2 4 6 7 11 17 19 20 22 26 29 31 34 35 35 35 34 33 33 33 33 32 31 29 28 25 23 21 18 15 12 10 9 8 8 8 8 7 7 8 9 8 8 7 6 6 6 6 6 7 7 8 8 7 6 5 6
2 1 4 5 3 3 3 3 4 3 2 1 2 3 2 1 2 2 1 2 1 1 2 1 3 2 0 1 2 1 3 6 6 6 10 15 19 21 23 26 30 33 36 37 38 37 36 36 37 37 35 33 32 31 29 26 24 20 16 14 11 10 9 9 9 9 8 9 10 10 10 10 9 8 7 7 7 6 6 7 7 8 7 6 6 6
2 1 5 4 2 2 3 3 4 4 2 1 4 7 5 3 3 2 1 2 1 0 3 3 4 1 1 0 3 1 3 3 4 4 3 4 11 17 21 25 28 31 34 37 38 39 39 39 39 39 38 36 35 33 31 28 25 21 18 16 14 12 11 11 10 9 8 9 10 10 10 10 10 9 8 8 6 6 6 6 7 7 7 6 6 6
0 2 2 2 3 3 2 1 4 4 3 1 3 6 5 4 3 3 1 1 2 2 2 2 3 3 1 1 3 1 3 3 2 2 3 2 4 11 18 21 24 27 30 34 38 40 41 41 41 41 41 39 37 35 33 30 27 23 20 19 16 14 13 12 11 10 9 9 9 9 9 8 9 9 8 7 6 5 5 5 6 6 7 6 6 6
2 2 2 2 3 3 1 1 3 6 5 1 0 4 7 5 4 4 2 1 1 2 0 1 1 3 3 0 1 1 3 3 1 3 2 2 2 6 11 15 18 23 26 30 35 39 42 42 42 43 42 39 37 36 35 32 30 26 23 21 18 16 15 13 12 12 10 9 10 11 10 8 8 8 7 6 6 5 4 4 5 5 6 6 5 6
2 2 1 1 1 1 2 0 5 8 3 1 1 3 5 4 3 3 2 1 1 2 3 1 1 3 4 0 1 1 3 2 3 5 5 5 6 7 7 10 14 19 25 29 32 36 40 42 43 43 41 39 37 36 36 34 31 28 25 22 20 18 17 15 13 13 12 11 12 13 13 10 9 9 8 7 6 5 4 4 4 4 5 5 5 5
1 2 2 3 2 2 1 1 4 7 2 1 4 5 6 5 5 3 1 2 2 2 5 2 1 3 4 1 1 1 0 1 3 5 5 6 9 9 10 11 12 15 21 27 31 34 37 39 40 40 40 40 38 37 37 35 33 30 26 24 22 20 19 17 15 15 14 13 14 15 14 13 10 10 11 9 8 7 6 5 4 4 4 4 3 4
2 1 2 2 2 1 3 3 1 1 3 4 4 4 6 4 3 2 2 1 1 3 4 1 1 3 3 1 1 1 1 2 4 4 5 8 11 12 13 13 13 13 15 21 27 31 32 33 34 36 38 39 40 39 38 36 34 31 28 27 25 22 20 19 18 16 15 15 15 15 15 14 12 11 12 11 10 9 8 7 5 5 4 3 3 3
3 1 2 2 2 3 4 4 3 2 3 3 1 2 3 1 1 1 1 1 3 4 1 3 2 3 5 2 1 1 2 3 4 4 5 8 12 15 16 16 15 13 12 13 18 24 27 28 30 32 35 38 40 40 40 38 36 34 31 29 27 24 23 22 20 18 17 17 16 16 16 15 14 12 12 12 10 10 9 8 7 6 5 4 4 3
3 2 1 2 2 3 2 3 3 1 2 2 2 2 2 1 1 1 1 1 4 3 1 3 1 2 5 4 1 1 1 2 2 3 5 8 12 15 17 16 15 13 10 8 8 14 20 24 27 29 31 35 38 40 40 39 37 35 33 31 30 28 25 23 22 21 19 18 17 17 17 17 16 14 13 12 11 10 9 9 9 8 6 6 5 4
3 1 1 1 1 1 2 3 2 2 3 4 3 3 3 2 1 2 2 1 4 2 2 1 1 1 3 2 1 1 1 2 2 3 5 7 10 12 13 14 14 12 9 6 3 5 11 17 22 24 27 31 34 37 39 38 37 36 35 33 32 30 27 25 24 23 22 20 18 17 18 18 17 16 15 13 12 10 10 10 10 9 7 6 5 5
2 2 1 0 0 2 1 2 1 2 3 2 1 1 3 3 2 3 3 3 4 0 2 1 2 2 2 1 2 2 2 3 4 5 5 6 7 8 10 14 16 14 11 6 2 0 4 10 15 19 22 24 28 32 34 35 34 35 35 34 33 31 29 27 26 25 24 22 20 19 19 19 18 18 16 15 14 12 11 11 11 10 9 7 6 7
2 3 1 2 2 1 1 1 1 2 3 1 0 1 2 2 2 1 1 1 2 0 1 2 2 2 1 1 1 1 1 3 5 6 6 7 8 9 11 16 20 20 16 11 6 3 1 5 8 13 16 19 22 25 27 29 30 32 34 35 34 33 31 30 28 27 26 24 22 21 20 20 20 19 19 17 16 15 13 12 12 12 11 9 8 9
1 2 1 2 1 1 2 0 1 1 2 2 2 3 1 1 3 2 0 2 1 3 2 1 2 2 1 1 2 2 2 3 4 5 6 7 8 10 13 17 22 23 21 18 12 7 2 2 4 7 10 13 16 18 21 23 25 27 30 32 33 33 33 32 31 29 28 26 25 23 22 21 20 21 21 20 18 16 15 14 14 14 13 12 11 11
2 2 1 1 1 2 3 1 3 3 1 2 2 3 3 1 2 2 1 2 0 4 2 1 3 3 3 2 4 5 3 2 2 4 4 6 7 10 13 17 23 24 23 22 19 15 10 5 3 1 4 7 9 12 15 17 19 21 24 27 30 33 34 34 33 32 30 28 28 26 24 22 21 21 21 21 20 19 18 17 16 16 16 15 14 13
1 3 1 0 1 3 4 1 2 4 4 1 1 2 2 3 2 1 2 1 2 3 1 1 2 2 5 3 5 8 7 4 1 2 3 4 7 8 10 17 22 24 24 24 23 22 17 13 9 6 3 1 3 5 9 11 14 17 19 22 26 30 33 34 35 34 32 31 30 28 26 24 23 22 21 21 22 22 22 21 19 18 18 17 16 16
0 2 1 1 1 3 3 1 2 1 3 2 1 2 1 2 2 1 1 1 3 3 1 1 1 2 4 2 4 9 8 5 3 2 1 2 4 5 9 15 19 22 23 23 23 22 20 17 13 11 9 6 3 1 2 5 8 11 13 16 19 22 26 31 34 35 35 34 33 31 29 27 26 24 23 22 22 23 24 23 21 21 20 19 18 18
1 1 2 0 1 3 1 1 2 0 2 1 2 2 1 1 0 1 1 1 1 2 2 2 3 2 1 1 4 8 9 6 4 3 1 0 2 5 9 12 16 20 22 22 22 21 20 19 16 14 12 9 6 4 2 0 2 4 6 7 9 12 17 23 29 33 35 36 35 34 32 31 29 27 25 24 23 24 25 25 24 23 22 21 20 20
0 1 2 2 2 3 0 1 1 1 0 1 1 2 1 1 2 3 3 1 0 2 2 2 3 2 2 1 3 5 6 5 4 2 2 1 3 6 9 12 15 18 20 21 21 21 20 20 19 17 15 13 10 8 5 3 2 1 2 3 4 6 9 13 19 24 29 33 35 36 35 35 33 31 28 28 27 26 25 25 25 25 24 23 22 22
1 1 1 3 4 3 2 1 1 2 1 0 1 0 1 1 2 4 4 2 2 1 1 1 2 1 1 0 1 2 3 3 3 5 4 1 5 7 9 12 15 17 18 19 19 20 21 20 20 19 18 17 15 13 10 8 5 3 1 2 3 4 5 8 12 16 19 23 28 31 34 36 36 34 32 31 31 30 29 28 27 27 27 26 25 24
2 1 1 2 2 2 2 1 1 1 2 1 0 1 1 1 0 2 2 1 2 3 3 2 3 2 1 1 0 1 1 2 4 6 4 1 5 8 10 12 14 15 16 16 16 17 18 18 18 18 18 18 17 17 15 13 11 8 5 3 1 2 4 7 9 11 13 16 18 21 26 31 34 35 34 32 32 32 32 31 31 30 30 29 28 27
1 1 1 2 3 3 2 2 2 2 2 1 0 1 0 1 3 1 1 1 3 3 3 4 4 2 2 1 1 1 0 1 3 4 3 1 5 8 10 12 13 13 13 13 12 12 13 14 14 15 15 15 15 14 14 14 13 12 10 8 5 2 1 4 6 8 10 11 12 14 18 23 26 31 33 34 33 33 32 33 33 33 33 33 32 31
1 1 2 3 4 4 4 4 3 1 1 1 0 1 1 2 3 1 1 2 3 2 3 4 2 1 2 2 3 2 0 2 5 4 3 4 6 7 10 12 11 11 11 10 10 10 10 10 11 12 12 12 11 11 11 10 10 10 10 9 7 6 4 2 1 2 5 7 9 12 15 18 21 24 28 32 34 34 33 33 33 34 34 35 36 36
1 0 2 4 6 6 6 4 1 1 2 2 1 2 2 1 1 1 1 3 3 2 3 4 1 1 5 7 8 6 2 3 5 5 6 8 8 8 10 11 10 10 10 9 9 8 8 9 9 9 8 8 8 8 8 7 7 6 6 6 5 5 5 5 4 4 3 3 5 7 11 14 17 19 22 25 27 28 29 30 31 32 34 36 37 37
1 1 1 3 5 5 4 2 1 1 4 4 3 4 3 2 2 3 4 3 3 2 5 4 4 4 5 7 9 8 6 5 6 6 7 10 11 10 11 11 10 9 8 8 8 8 8 8 8 8 8 8 8 8 8 8 7 7 6 6 6 5 5 5 4 5 5 5 5 5 5 8 11 14 17 19 21 22 23 25 28 31 34 36 35 34
1 2 2 2 4 3 2 3 2 3 4 4 4 6 6 4 4 6 7 4 5 7 6 5 8 8 6 5 7 7 6 7 7 8 9 11 12 12 12 11 9 8 7 7 8 8 9 9 9 10 10 10 11 11 11 11 11 11 11 10 10 10 9 9 8 8 8 8 8 8 8 7 8 9 11 14 16 17 19 23 26 28 30 31 31 32
1 2 2 2 3 3 4 3 2 3 4 4 6 7 6 6 7 8 8 5 6 9 4 2 7 9 5 5 5 3 3 5 6 8 10 10 11 12 12 10 8 7 7 7 8 8 9 9 10 11 11 12 13 14 14 15 15 16 16 16 15 15 15 14 13 13 12 12 12 12 12 12 12 11 11 12 13 13 15 19 22 22 23 24 26 29
1 1 2 2 3 4 3 3 4 6 6 8 9 6 5 7 8 7 6 3 4 7 4 3 7 7 4 5 5 3 2 4 5 7 9 9 11 13 11 9 7 7 7 7 8 8 9 10 10 11 12 13 14 15 16 17 17 18 19 19 19 20 19 18 18 17 17 17 16 16 16 16 16 16 16 16 16 15 14 15 16 16 17 19 22 24
1 1 1 1 4 5 4 7 9 6 6 10 9 7 8 10 7 5 5 5 6 8 7 7 7 6 4 5 6 6 6 6 6 7 8 9 12 12 9 7 6 6 7 8 9 10 10 11 11 12 12 13 14 14 16 17 18 19 20 21 22 22 22 22 22 22 21 20 20 19 19 19 19 20 20 20 19 19 18 18 16 14 15 17 19 20
1 2 1 2 4 4 3 4 4 4 6 9 6 6 11 11 8 7 6 6 8 8 7 6 5 3 2 3 5 5 5 5 5 6 7 9 11 10 7 6 6 7 8 10 11 12 12 13 14 14 14 14 15 15 16 17 19 20 21 22 23 24 24 24 24 24 24 23 23 22 21 21 21 22 22 22 22 22 21 21 20 17 15 16 16 17
1 2 2 2 3 3 0 2 1 4 7 4 1 2 7 8 9 10 7 4 4 4 4 4 3 2 1 2 3 2 3 2 2 3 4 6 9 9 6 5 6 8 10 12 13 14 15 15 16 16 16 16 17 17 18 18 19 21 22 23 24 24 25 25 26 26 25 25 25 24 24 23 23 23 22 22 22 23 23 22 22 20 16 14 16 18
2 3 2 2 2 2 1 2 3 6 5 2 2 1 4 5 6 7 3 3 3 3 4 5 4 2 1 2 2 4 4 4 3 3 2 4 9 10 4 5 8 10 13 14 16 17 18 18 19 19 19 19 19 20 20 20 21 22 23 24 25 25 25 26 27 27 26 26 25 24 24 25 24 24 23 23 22 23 23 23 23 21 18 15 16 19
3 3 2 1 2 1 1 3 4 3 4 5 3 1 2 2 2 2 2 4 6 4 3 2 2 1 1 2 3 4 4 5 5 6 7 3 6 7 1 7 10 11 13 15 17 19 19 20 20 20 21 21 21 22 22 22 23 24 25 26 26 26 26 27 27 27 27 26 25 25 24 24 24 24 24 23 23 23 24 24 24 22 19 16 16 19
4 3 2 3 3 2 2 4 3 4 6 5 2 2 1 1 1 1 1 3 5 4 2 3 4 5 4 4 5 5 4 3 3 7 9 7 3 1 6 9 11 13 14 16 18 19 19 19 19 20 21 22 22 23 24 25 26 27 28 28 27 27 27 28 28 27 26 26 27 26 24 23 23 24 23 23 24 24 24 25 25 23 19 17 18 21
3 1 2 4 2 2 2 3 3 4 4 3 1 1 2 2 2 2 2 2 3 4 3 4 6 6 6 7 8 6 3 0 2 3 7 8 8 8 11 12 14 16 16 17 18 18 18 19 19 20 21 22 23 24 24 26 27 28 29 30 29 29 29 28 28 27 27 27 27 26 24 23 23 23 23 23 23 24 24 25 25 23 18 17 19 23
3 1 1 3 2 2 3 4 3 3 2 1 1 1 2 3 3 2 3 3 2 4 5 5 6 7 6 6 6 4 3 1 2 1 8 13 14 14 15 16 17 18 18 17 18 19 20 20 21 22 22 23 24 24 25 26 28 29 30 30 30 30 30 29 28 28 28 28 27 26 24 23 22 22 22 22 23 24 24 25 25 22 19 19 22 26
3 2 1 3 3 3 3 3 3 3 1 1 3 3 2 2 4 4 5 2 2 6 7 4 6 8 7 4 3 2 2 3 3 8 14 17 18 17 18 18 18 18 18 19 19 20 22 22 23 24 24 24 25 25 26 27 28 29 31 30 30 31 31 30 29 29 28 28 27 26 24 23 22 21 21 22 24 24 24 25 24 21 19 20 23 29
1 0 1 2 3 3 4 4 3 2 1 1 3 3 1 2 3 4 4 2 4 9 9 4 4 8 8 6 3 2 4 6 8 12 16 19 19 19 19 18 18 18 19 20 21 22 23 23 23 24 24 25 25 26 27 28 29 31 31 31 31 31 31 31 30 29 28 28 27 26 24 22 22 21 21 22 23 25 25 25 22 19 19 21 25 29
0 0 0 1 1 1 2 2 3 3 1 1 4 3 2 2 2 3 5 9 10 10 10 8 6 7 8 9 8 8 10 11 13 14 16 18 19 20 20 20 21 21 21 22 22 22 23 23 23 23 24 24 25 26 27 28 29 31 32 32 33 32 31 31 30 29 29 28 28 28 26 25 24 22 21 21 23 24 23 21 19 18 20 23 26 29
0 1 2 2 1 1 2 3 3 3 1 3 6 4 1 0 2 4 9 14 15 13 13 13 10 7 9 10 12 14 15 16 16 17 18 19 21 22 23 23 24 24 24 24 24 23 23 24 24 24 24 24 25 26 26 27 30 31 32 33 33 31 30 31 30 30 30 30 31 31 30 29 26 22 20 20 21 21 19 18 20 21 21 24 27 29
0 1 2 1 1 1 2 2 0 1 2 4 7 6 4 4 6 11 14 15 17 17 15 13 12 11 13 14 15 18 18 18 19 20 21 23 25 25 27 27 27 27 26 26 26 25 25 26 26 26 26 25 25 26 26 28 30 31 32 33 32 29 29 30 31 31 32 33 33 32 31 30 25 20 17 16 16 16 17 19 20 21 24 27 28 26
1 1 2 3 2 2 4 4 5 6 7 8 9 9 9 11 14 19 20 16 14 15 14 12 14 15 16 16 18 20 20 20 22 23 24 26 27 28 28 28 28 29 28 28 28 27 27 28 28 29 29 27 27 27 27 28 30 32 33 32 30 29 30 31 32 33 33 32 32 31 29 25 19 15 14 14 14 16 18 21 26 28 28 26 23 21
3 2 1 3 2 4 6 6 8 10 12 12 14 15 16 16 17 19 19 15 13 15 17 17 17 18 19 19 20 21 22 22 23 25 26 27 28 29 29 29 29 29 29 30 29 28 29 30 31 31 31 30 29 28 28 29 30 31 31 31 30 30 31 32 33 33 31 29 27 24 19 15 14 15 16 16 16 19 24 29 30 28 25 22 20 18
2 2 2 4 3 4 4 3 5 11 15 18 22 23 20 18 17 19 19 18 18 20 20 20 21 22 22 22 22 23 23 22 23 25 26 27 28 29 29 30 30 30 30 31 30 29 30 31 32 31 31 30 29 28 29 30 29 29 30 31 30 31 33 34 32 29 25 21 18 15 14 15 17 18 18 19 23 26 29 27 24 23 22 20 19 18
1 2 3 4 4 5 7 8 13 19 21 21 21 20 18 19 21 22 21 21 22 22 22 21 22 23 24 24 24 24 24 23 24 25 26 28 29 30 31 32 32 31 31 30 29 29 30 31 31 30 28 28 28 27 27 27 27 28 30 31 32 33 32 28 23 19 17 16 16 16 16 18 20 24 27 29 29 28 26 23 21 21 20 17 16 17
2 4 4 3 5 7 8 9 13 15 15 15 17 19 20 22 24 25 25 25 25 25 24 23 23 23 24 23 22 22 23 24 24 25 27 29 31 32 33 33 32 32 31 30 29 30 30 30 30 28 27 27 26 25 25 24 25 26 28 30 31 29 22 16 12 12 14 15 16 18 23 28 31 32 33 33 30 27 25 23 21 21 21 19 18 18
4 6 5 4 6 7 7 10 13 12 11 15 22 25 24 24 25 27 28 29 29 28 27 25 23 22 21 20 19 20 23 25 26 27 29 30 31 31 31 31 31 32 31 31 31 31 31 30 29 27 27 26 24 22 21 20 20 22 24 24 20 14 9 9 10 14 18 23 28 32 34 35 33 32 31 31 29 27 24 22 21 22 24 23 21 19
3 5 5 5 8 9 12 17 18 15 15 19 24 28 30 29 28 28 29 31 32 31 28 24 22 21 21 21 21 22 24 27 27 27 29 30 29 29 29 29 30 31 31 31 31 31 31 30 28 27 27 24 21 19 17 16 17 18 15 7 1 8 14 19 26 32 35 37 38 37 35 32 31 29 27 27 27 27 27 26 25 24 23 21 19 17
Wind_Direction
66 140 178 224 246 256 220 189 107 129 139 107 135 171 182 208 245 258 278 12 1 277 99 65 300 291 285 290 247 191 190 193 201 200 202 206 209 212 214 216 216 217 218 216 215 213 208 209 215 216 217 217 218 220 221 223 226 226 225 220 209 200 194 177 171 185 191 206 213 193 191 196 182 140 119 118 121 98 68 61 59 57 49 60 135 212
68 117 226 232 233 230 165 149 120 114 133 138 168 186 195 218 238 33 345 359 1 286 85 69 282 269 268 276 273 171 196 203 202 201 202 203 209 215 217 220 220 221 221 219 219 217 212 211 216 218 219 220 221 222 223 224 226 225 223 222 215 203 186 168 167 170 165 167 165 164 167 160 142 129 124 119 112 98 81 73 71 67 60 62 75 115
67 247 251 229 166 100 84 121 132 119 132 148 164 197 200 217 276 292 195 355 355 305 231 69 301 282 260 278 287 204 210 222 212 211 213 208 208 215 220 223 224 225 225 223 221 220 216 214 217 220 221 222 224 224 225 225 225 223 220 220 217 205 184 169 171 170 166 166 157 152 153 146 136 131 129 123 113 102 91 84 78 72 64 61 71 86
222 224 203 141 139 124 84 107 130 116 130 161 164 199 219 64 287 250 146 350 2 3 356 243 289 283 266 279 280 263 250 258 250 232 227 220 216 218 223 227 227 227 227 226 224 222 220 218 218 220 222 222 223 223 224 225 225 222 218 220 218 205 186 174 177 176 171 172 167 159 155 149 143 142 137 129 118 106 96 88 80 73 66 63 73 86
252 147 120 120 139 152 122 133 155 152 164 193 195 214 227 190 227 249 319 320 293 98 51 313 271 261 27 189 181 18 310 273 275 261 234 225 226 227 229 233 233 232 232 230 228 226 224 221 220 220 222 222 223 224 224 225 225 222 218 220 219 205 189 179 183 185 178 178 178 170 165 160 156 153 145 134 123 112 101 90 82 75 67 62 73 87
283 130 145 139 125 162 151 166 199 190 183 220 217 218 216 192 195 212 309 313 255 175 50 352 288 235 42 145 165 27 329 277 287 308 304 240 229 231 235 238 239 239 238 236 234 231 228 225 222 220 221 222 223 225 224 224 225 223 218 219 218 208 194 185 187 190 184 186 189 179 172 167 160 156 149 142 135 125 112 99 88 79 72 66 71 83
321 86 146 141 120 149 167 213 209 187 174 215 221 198 180 161 156 160 192 249 291 310 43 359 295 272 305 113 133 6 302 271 295 341 344 344 231 231 238 242 243 242 242 239 237 236 233 229 224 221 221 221 222 223 224 223 223 221 219 217 218 211 200 191 189 191 189 190 189 179 174 168 162 160 157 158 156 144 126 112 99 87 80 74 74 82
166 119 78 82 104 137 195 251 192 177 169 179 171 151 152 157 162 160 176 213 293 311 299 60 337 278 275 185 122 322 288 276 41 50 343 315 282 245 240 243 245 245 245 243 240 238 236 232 228 225 222 219 220 222 223 223 222 220 217 216 216 213 205 197 193 193 191 191 184 176 173 169 168 175 178 179 177 167 152 130 114 100 90 83 82 86
172 184 173 159 140 219 243 174 168 178 182 358 95 122 129 132 126 134 149 148 72 288 253 159 104 263 266 206 175 227 261 268 45 16 329 314 312 299 278 265 255 249 247 245 244 242 239 236 232 228 224 219 219 222 224 223 222 220 216 214 215 215 210 203 199 196 192 191 187 181 177 174 174 184 196 203 201 198 189 163 140 122 105 93 89 91
211 228 204 175 221 253 265 40 169 183 179 112 133 102 84 77 71 79 120 130 107 263 256 225 111 262 269 273 249 230 265 296 356 340 312 313 319 317 308 298 286 269 255 247 245 245 242 239 235 230 225 221 219 223 225 223 223 221 216 214 215 216 213 210 205 200 195 193 193 191 186 182 182 191 203 210 212 214 212 198 177 153 132 115 103 102
291 238 193 199 237 165 102 69 47 141 118 144 151 99 85 69 59 68 49 67 171 238 253 315 70 251 269 286 254 343 5 296 299 306 309 320 327 326 320 315 308 296 277 259 250 247 244 239 235 231 226 223 221 223 225 224 223 221 218 217 217 217 217 215 211 205 200 198 198 199 194 189 191 200 210 215 217 221 223 217 202 184 169 155 140 131
326 179 198 268 229 136 112 88 47 50 114 146 162 113 117 70 69 111 62 101 232 243 269 26 44 217 243 247 107 47 306 273 266 279 310 323 327 329 329 328 320 310 303 281 256 243 240 235 231 229 226 225 223 224 226 225 223 221 219 219 219 218 218 218 216 211 207 203 201 203 201 198 198 205 218 225 226 229 231 228 218 205 195 189 187 181
313 209 285 304 184 152 153 119 94 91 155 175 163 149 209 245 115 228 242 187 238 254 39 34 24 209 241 262 34 44 299 295 268 270 302 316 318 324 331 339 335 325 325 312 261 232 229 228 227 226 225 225 225 225 227 226 224 221 221 221 221 221 221 221 220 218 215 212 208 206 206 206 204 207 219 229 235 238 237 235 230 221 212 207 211 210
302 266 358 301 142 98 220 192 175 187 186 196 181 172 223 222 154 229 223 239 259 269 46 34 305 254 245 267 23 27 324 341 329 318 321 318 318 324 341 0 1 351 349 344 296 228 225 227 228 227 226 226 226 227 227 227 225 222 221 222 223 223 223 223 224 223 222 220 217 213 211 212 213 213 217 224 233 238 239 238 237 234 228 219 221 224
285 275 19 324 338 3 278 218 204 125 155 193 174 163 211 200 212 245 225 240 260 280 69 135 210 235 228 52 9 320 340 5 1 354 344 336 341 350 6 26 32 25 20 21 31 29 235 233 232 231 231 231 230 230 229 228 227 224 223 224 225 224 223 225 227 227 228 227 225 222 218 217 219 221 221 224 230 236 238 237 237 238 235 227 226 229
271 268 289 308 290 319 336 198 106 119 142 119 50 176 215 201 187 241 296 288 291 251 154 190 223 256 280 11 1 329 41 39 14 2 360 354 4 17 24 38 46 45 40 38 45 67 221 239 239 237 237 237 237 235 234 233 230 228 226 226 227 227 226 227 229 230 232 232 231 230 227 223 223 226 228 228 229 233 236 237 237 239 239 234 232 234
228 261 299 311 300 41 5 193 138 280 177 136 181 189 153 86 126 130 93 48 14 251 213 171 227 232 221 201 132 118 91 54 17 7 6 356 7 26 31 43 52 53 51 49 49 59 97 196 232 243 243 244 244 243 241 239 237 235 233 230 230 230 230 230 231 232 235 236 236 235 235 233 230 230 233 235 234 235 238 240 240 240 239 236 234 238
245 255 327 323 162 47 354 85 88 35 51 159 200 157 125 112 94 119 218 72 127 246 224 170 230 211 204 199 148 153 157 102 26 7 5 5 22 33 36 49 58 60 60 60 58 58 65 83 103 206 243 247 251 251 248 246 243 240 238 237 235 234 233 233 233 233 235 237 239 240 240 240 239 237 238 241 242 242 243 244 244 244 242 239 236 239
259 266 325 23 239 341 350 296 125 58 41 27 206 112 126 232 217 159 204 187 215 242 232 191 237 229 221 207 162 171 168 145 118 10 15 25 31 31 40 56 64 65 64 63 62 61 62 67 75 85 102 173 246 257 256 254 251 247 243 240 239 238 237 236 236 236 236 238 240 242 243 245 246 246 245 245 246 248 247 245 244 246 246 244 241 240
266 275 289 139 262 319 358 282 232 113 76 66 128 113 27 280 251 211 193 218 229 233 241 208 220 228 220 201 167 170 160 155 161 120 61 30 26 34 47 57 65 69 67 66 66 66 66 67 72 82 88 88 84 77 262 264 261 256 252 249 246 244 243 241 239 238 239 240 241 243 245 246 248 249 250 249 249 251 251 248 245 245 246 247 246 245
112 246 260 299 310 273 291 17 293 263 123 161 193 179 140 102 267 242 161 71 249 210 186 207 234 225 154 157 185 163 155 168 168 142 147 104 42 59 62 63 69 73 73 73 71 70 69 68 69 73 77 78 82 91 100 243 263 256 255 256 254 252 250 249 246 243 242 243 244 245 246 248 249 250 252 253 253 253 254 252 248 245 246 247 247 247
94 178 248 296 300 267 315 38 320 318 4 274 247 220 189 164 200 225 212 162 295 233 193 189 235 232 107 166 207 153 144 163 173 194 214 129 78 76 75 74 77 79 79 78 78 78 77 75 73 73 75 79 87 98 105 111 125 204 221 216 235 250 255 258 257 253 249 248 248 248 249 250 251 252 254 254 254 254 254 254 252 249 248 247 247 248
138 125 228 260 279 286 319 349 266 262 230 118 323 277 179 176 201 233 236 198 172 208 106 115 249 243 88 113 222 126 124 161 206 236 236 116 95 94 89 88 87 87 86 83 82 83 82 83 82 80 80 79 82 84 86 91 98 105 156 192 224 243 246 253 260 261 258 254 253 252 252 253 253 254 256 257 255 254 254 255 255 253 252 251 250 248
152 140 257 258 291 302 293 98 135 210 171 160 12 73 174 235 220 251 260 173 203 192 151 200 242 188 124 27 12 119 132 200 228 236 239 95 101 106 102 100 97 93 91 87 84 83 83 85 84 82 81 79 78 78 76 76 78 79 81 84 115 238 239 244 251 256 258 259 258 257 256 255 254 254 255 257 256 255 255 256 256 256 255 255 254 252
201 222 219 267 294 291 262 200 187 198 181 223 327 68 254 123 103 117 123 147 226 208 183 234 243 166 130 57 140 179 8 193 198 214 232 120 108 108 102 104 103 99 97 93 89 86 82 79 76 74 74 74 75 76 75 75 73 72 72 73 77 85 231 244 246 246 248 250 249 252 255 256 256 255 254 256 258 258 258 258 259 258 257 257 257 256
233 209 189 240 260 252 247 247 258 269 231 287 292 202 223 128 132 176 158 185 224 195 183 225 241 127 140 174 199 208 322 196 187 186 183 145 129 118 110 110 107 102 100 95 91 87 82 76 70 67 64 62 62 63 64 68 70 70 72 74 75 73 66 52 338 274 257 249 241 240 244 248 255 257 256 258 261 264 266 266 265 263 261 260 258 256
161 234 213 232 248 252 257 259 313 11 251 253 255 233 216 140 171 149 154 205 207 173 197 213 236 205 180 187 208 213 205 208 200 181 157 150 149 138 125 120 112 103 96 88 84 79 73 68 62 56 50 44 41 38 36 39 43 46 49 49 49 49 47 42 28 12 348 303 270 253 244 244 250 256 259 260 263 268 271 272 270 267 264 262 260 257
150 262 206 210 243 253 268 257 139 172 254 256 266 259 238 204 184 187 219 214 135 196 237 197 189 225 201 195 215 216 206 209 216 208 177 159 157 150 137 126 115 103 90 76 67 57 49 43 35 28 21 13 9 3 359 357 356 355 353 351 350 347 344 345 348 348 343 335 326 310 280 258 252 253 256 259 261 266 269 269 269 268 266 266 265 265
191 254 179 193 245 239 241 244 197 208 247 244 246 255 251 233 206 212 232 207 166 229 249 177 189 218 213 210 227 226 214 207 209 208 187 165 158 153 143 131 116 99 82 64 49 39 29 21 13 7 359 351 345 339 335 332 330 329 327 325 323 321 318 315 315 316 317 318 319 315 308 298 282 269 262 259 258 258 258 261 266 270 273 275 274 271
226 255 151 188 258 252 238 235 193 212 242 245 241 240 241 244 235 234 243 223 209 244 271 149 210 226 211 216 240 247 203 187 192 194 179 161 155 154 146 131 112 92 73 57 42 31 19 10 2 354 347 342 337 332 328 325 323 322 320 319 317 314 311 309 307 306 306 307 306 304 302 300 296 289 284 277 271 264 256 259 266 271 273 274 273 269
227 258 102 143 258 262 249 243 226 224 239 249 249 245 243 246 242 242 248 231 232 261 269 203 234 247 235 238 260 279 205 187 193 186 167 156 156 154 143 124 103 79 59 44 33 22 12 4 357 350 344 338 332 328 324 321 319 318 316 315 314 313 312 311 309 306 304 302 299 297 296 295 293 290 288 287 287 285 278 273 273 272 268 266 267 266
201 234 99 151 260 255 227 244 252 251 258 255 249 247 246 243 234 227 224 202 210 240 241 225 239 255 248 247 255 250 238 230 209 174 156 155 157 151 134 109 84 52 33 21 14 8 3 358 354 350 345 338 332 327 322 318 316 314 313 311 310 310 310 310 310 308 306 304 301 299 295 293 291 289 287 287 287 288 288 285 280 274 266 264 265 263
184 227 185 191 261 258 218 245 276 312 287 262 236 229 240 239 232 227 222 208 207 220 232 235 247 281 315 272 251 230 221 225 198 159 150 156 158 152 130 91 50 23 11 4 359 355 353 350 347 345 342 337 332 327 323 320 317 313 311 309 308 308 308 309 309 307 306 306 304 303 301 297 293 289 288 287 285 284 283 283 281 276 268 266 267 261
174 232 235 202 243 263 335 36 356 268 260 257 112 230 249 249 246 244 245 245 232 236 260 271 278 317 315 244 231 163 126 122 129 140 153 166 169 160 129 69 24 4 355 350 348 346 344 342 340 338 336 332 328 325 322 321 317 314 311 309 308 308 308 307 306 305 305 306 306 305 304 300 296 291 288 285 282 280 277 276 277 276 271 265 261 256
171 200 215 194 230 266 39 64 239 243 253 311 20 282 250 258 258 251 261 359 349 305 294 288 280 275 214 167 113 88 87 64 49 76 112 180 182 172 136 27 357 347 341 338 337 337 337 336 333 331 330 327 325 323 321 319 316 313 311 311 310 309 309 307 305 303 303 304 305 305 302 298 294 290 287 283 280 276 274 272 271 273 270 261 255 251
186 184 181 174 195 208 147 184 211 270 315 306 308 330 265 274 282 227 175 52 18 340 305 308 323 21 62 87 75 59 46 36 50 75 70 80 170 181 274 342 340 332 329 329 329 330 330 329 328 325 323 322 321 321 320 318 315 313 312 312 311 310 309 307 304 304 303 302 302 301 298 293 289 286 284 282 278 274 271 269 267 267 265 259 253 249
186 169 174 208 201 181 216 220 233 315 309 275 268 8 322 289 9 303 218 63 21 353 352 15 18 23 17 21 29 29 31 36 74 85 66 49 59 331 319 324 324 319 319 321 322 323 324 322 320 318 317 316 316 318 318 316 314 313 312 311 311 310 308 305 304 305 304 300 295 294 293 289 285 283 281 279 276 271 268 267 265 264 259 252 248 245
176 179 186 217 218 157 224 254 261 279 280 251 221 340 289 246 256 281 242 117 50 12 1 10 18 17 8 10 16 16 19 3 179 101 47 14 353 336 323 319 318 318 318 318 317 317 316 315 313 312 312 312 313 316 317 315 313 312 311 311 311 309 306 304 304 303 299 293 290 290 289 286 283 280 277 273 271 268 265 263 262 259 252 245 245 244
110 50 143 209 233 166 210 249 241 227 247 273 256 313 306 251 213 207 231 201 86 12 353 353 4 8 6 7 13 14 355 300 227 327 348 338 330 325 320 318 317 316 313 312 313 312 311 310 309 308 308 308 311 314 314 313 311 310 309 309 309 306 304 304 303 300 294 291 290 289 286 282 280 277 273 267 263 261 260 258 256 252 244 239 241 239
108 76 140 219 236 195 208 244 243 232 257 278 275 302 312 215 188 218 245 218 40 346 339 346 350 356 0 355 5 23 303 285 298 314 317 318 317 316 315 314 313 311 308 307 307 307 307 306 306 305 305 306 309 312 312 311 309 307 307 307 305 302 302 303 301 298 294 292 290 287 283 280 278 275 272 265 257 254 253 251 247 242 235 234 237 233
104 100 189 234 240 213 218 244 262 263 241 251 303 324 27 161 195 230 255 327 328 314 320 331 334 345 345 321 287 268 279 290 303 308 309 311 312 312 312 311 309 306 304 305 306 307 306 305 303 302 303 305 307 309 309 308 306 306 306 305 301 299 301 302 300 297 294 292 288 285 283 280 276 274 273 267 256 250 248 245 238 229 228 233 232 221
12 27 243 223 242 240 214 236 284 290 165 79 353 7 114 172 234 256 305 315 303 294 300 299 299 322 324 301 281 281 293 303 310 312 313 313 311 311 311 310 308 305 302 302 305 307 307 305 303 302 303 305 306 306 306 305 304 305 305 301 297 298 301 302 300 296 292 289 288 286 284 281 277 273 271 266 255 248 244 237 227 224 229 227 215 199
69 294 267 210 217 280 214 214 276 286 122 54 12 8 83 221 311 325 323 316 309 301 292 284 286 308 316 304 296 297 302 306 309 312 314 312 310 309 308 308 307 305 303 301 301 304 306 304 302 303 304 305 306 305 305 304 304 305 302 297 295 297 299 300 299 295 291 288 287 285 283 281 278 271 265 260 251 241 234 227 223 222 217 202 189 181
193 232 286 275 228 249 216 191 211 92 100 31 350 326 288 273 306 324 324 315 310 310 301 286 289 309 319 315 310 309 307 307 308 310 311 309 308 307 307 306 306 304 303 301 299 301 303 302 301 302 303 303 305 306 305 306 306 303 298 295 294 295 296 297 296 292 289 286 284 283 281 279 274 263 251 243 234 228 227 222 209 194 182 175 171 170
309 343 301 278 249 260 268 272 287 292 299 314 316 305 292 285 297 313 315 304 301 313 317 307 303 311 317 316 314 312 310 309 310 309 308 306 305 304 304 304 303 302 302 300 299 301 302 301 301 302 301 301 304 305 306 307 305 300 296 296 295 293 292 292 290 288 286 283 280 279 277 271 258 236 222 217 219 223 215 194 175 164 161 160 158 157
321 3 286 258 284 302 282 266 273 285 297 309 310 308 306 301 305 318 319 311 308 316 319 315 312 313 314 313 311 307 304 305 306 304 303 303 302 301 301 300 299 299 298 298 299 300 299 298 298 299 299 300 302 305 307 307 302 298 296 295 293 291 291 291 289 285 282 278 274 271 262 242 218 210 211 210 205 194 177 164 157 152 150 149 149 150
327 25 291 267 285 302 284 279 304 300 303 309 309 309 312 313 317 324 323 318 316 316 313 310 309 310 309 308 305 301 299 299 299 298 298 299 298 298 298 298 297 297 296 297 298 298 298 297 297 297 297 298 300 305 307 304 300 297 296 296 296 296 297 294 288 281 274 265 255 243 227 214 206 199 188 174 164 157 151 149 148 145 143 145 147 145
337 9 311 276 265 272 278 291 298 297 298 302 304 306 310 313 316 318 317 314 312 309 306 303 301 302 301 300 299 298 297 296 296 298 299 299 299 298 297 296 297 298 298 297 297 297 298 298 297 296 295 295 299 305 306 302 299 298 298 298 300 300 296 290 280 265 252 239 225 214 202 188 172 157 145 139 137 136 136 138 141 140 138 136 133 129
282 290 294 292 291 287 284 288 294 297 300 301 302 303 304 307 310 311 311 310 308 305 304 301 296 294 294 293 293 293 293 294 296 297 299 299 298 296 294 294 295 296 295 295 295 296 297 297 296 294 292 293 299 304 303 299 297 297 298 299 301 301 293 278 256 233 221 209 192 174 156 144 137 133 130 129 129 130 132 134 134 130 125 121 118 117
261 287 296 298 296 294 294 304 308 308 302 297 299 301 302 303 304 304 304 305 305 304 305 301 294 290 288 287 288 289 289 291 294 296 297 297 294 293 292 292 293 292 292 292 293 294 294 295 294 292 290 292 298 302 299 292 289 294 300 303 304 297 269 229 194 168 154 146 139 135 132 130 128 129 129 128 128 130 130 129 126 122 120 118 115 110
262 315 323 301 297 296 294 298 301 298 290 290 293 296 298 299 298 296 296 299 300 299 299 296 292 292 289 286 287 287 287 289 292 295 296 295 293 293 293 293 293 293 292 292 293 292 292 292 290 289 289 291 294 295 286 273 279 296 307 310 150 141 143 139 132 127 125 125 126 127 128 129 128 128 127 126 126 126 125 124 122 119 115 111 106 101